1495778401.23,2288,14.0,73780.5,7.61,-29.45,-30.89,0,*45
1495778402.49,2289,14.0,73786.8,7.61,-29.45,-30.77,0,*45
1495778403.75,2290,14.0,73782.3,7.61,-29.67,-30.89,0,*4C
1495778404.98,2291,14.0,73782.3,7.63,-29.83,-31.23,0,*44
1495778406.2,2292,14.0,73782.8,7.63,-29.95,-31.39,0,*4B
1495778407.42,2293,14.0,73782.8,7.63,-30.11,-31.39,0,*4E
1495778408.64,2294,14.0,73780.5,7.61,-29.67,-31.05,0,*4D
1495778409.92,2295,14.0,73786.0,7.61,-29.35,-30.55,0,*4F
1495778411.12,2296,14.0,73784.0,7.63,-29.79,-31.01,0,*46
1495778412.37,2297,14.0,73784.5,7.65,-29.95,-31.23,0,*43
1495778413.62,2298,14.0,73782.0,7.65,-29.61,-30.89,0,*46
1495778414.87,2299,14.0,73786.5,7.65,-29.29,-30.67,0,*4B
1495778416.12,2300,14.0,73782.0,7.65,-28.59,-29.83,0,*4E
1495778417.39,2301,14.0,73784.3,7.65,-28.75,-30.01,0,*43
1495778418.61,2302,14.0,73786.3,7.65,-28.97,-30.33,0,*4D
1495778419.85,2303,14.0,73786.5,7.67,-29.39,-30.83,0,*40
1495778421.06,2304,14.0,73780.5,7.71,-30.11,-31.51,0,*4C
1495778422.3,2305,14.0,73780.3,7.67,-29.39,-30.83,0,*46
1495778423.54,2306,14.0,73782.8,7.71,-29.13,-30.55,0,*41
1495778424.79,2307,14.0,73780.8,7.71,-29.29,-30.73,0,*4D
1495778426.05,2308,14.0,73786.3,7.71,-29.39,-30.77,0,*47
1495778427.25,2309,14.0,73784.3,7.71,-29.83,-31.29,0,*4D
1495778428.49,2310,14.0,73784.0,7.73,-29.73,-31.05,0,*46
1495778429.75,2311,14.0,73784.0,7.73,-29.01,-30.39,0,*4C
1495778431.0,2312,14.0,73782.8,7.73,-28.63,-29.83,0,*43
1495778432.23,2313,14.0,73784.8,7.75,-29.35,-30.83,0,*4E
1495778433.45,2314,14.0,73782.3,7.75,-28.59,-29.83,0,*4A
1495778434.7,2315,14.0,73784.3,7.75,-28.63,-30.01,0,*40
1495778435.89,2316,14.0,73786.0,7.75,-28.97,-30.33,0,*49
1495778437.14,2317,14.0,73786.5,7.77,-28.79,-30.11,0,*4A
1495778438.39,2318,14.06,73786.5,7.77,-29.29,-30.67,0,*40
1495778439.61,2319,14.0,73784.8,7.79,-29.57,-30.95,0,*4B
1495778440.84,2320,14.0,73782.3,7.77,-29.07,-30.33,0,*46
1495778442.09,2321,14.0,73780.3,7.79,-28.91,-30.05,0,*42
1495778443.28,2322,14.0,73780.0,7.79,-28.53,-29.79,0,*4C
1495778444.47,2323,14.0,73786.0,7.79,-28.69,-29.95,0,*46
1495778445.72,2324,14.0,73784.3,7.83,-29.57,-30.95,0,*40
1495778446.97,2325,14.0,73786.3,7.81,-29.01,-30.39,0,*46
1495778448.22,2326,14.0,73782.3,7.83,-29.01,-30.45,0,*4C
1495778449.48,2327,14.0,73784.5,7.81,-29.35,-30.73,0,*4D
1495778450.7,2328,14.0,73782.5,7.83,-28.69,-30.27,0,*49
1495778451.99,2329,14.0,73786.8,7.83,-29.51,-30.89,0,*46
1495778453.25,2330,14.0,73784.8,7.83,-29.73,-31.11,0,*4E
1495778454.48,2331,14.0,73784.5,7.85,-28.63,-29.95,0,*4C
1495778455.73,2332,14.0,73784.8,7.87,-28.43,-29.67,0,*42
1495778456.98,2333,14.0,73784.5,7.87,-28.75,-30.11,0,*4F
1495778458.22,2334,14.0,73784.3,7.87,-28.43,-29.79,0,*4B
1495778459.44,2335,14.0,73786.5,7.89,-28.09,-29.45,0,*45
1495778460.69,2336,14.0,73786.0,7.89,-28.43,-29.73,0,*4D
1495778461.92,2337,14.0,73786.3,7.89,-28.91,-30.33,0,*4F
1495778463.17,2338,14.0,73784.5,7.93,-28.63,-30.01,0,*47
1495778464.42,2339,14.0,73784.3,7.95,-28.15,-29.51,0,*4C
1495778465.62,2340,14.0,73786.3,7.97,-28.15,-29.45,0,*45
1495778466.84,2341,14.0,73784.8,7.97,-27.93,-29.29,0,*4F
1495778468.05,2342,14.0,73786.3,7.99,-28.31,-29.67,0,*4F
1495778469.28,2343,14.0,73786.8,8.01,-28.25,-29.61,0,*43
1495778470.53,2344,14.0,73784.5,7.99,-29.45,-30.73,0,*46
1495778471.8,2345,14.0,73784.8,7.99,-28.75,-30.01,0,*40
1495778473.03,2346,14.0,73786.8,8.01,-28.85,-30.01,0,*42
1495778474.25,2347,14.0,73786.5,8.01,-29.07,-30.51,0,*4D
1495778475.48,2348,14.0,73786.0,8.01,-29.79,-31.23,0,*4F
1495778476.7,2349,14.0,73784.8,8.01,-29.13,-30.45,0,*43
1495778477.9,2350,14.0,73784.0,8.01,-28.97,-30.33,0,*47
1495778479.12,2351,14.0,73786.0,8.01,-30.17,-31.67,0,*47
1495778480.39,2352,14.0,73784.3,8.03,-30.73,-32.19,0,*4E
1495778481.59,2353,14.0,73786.0,8.01,-29.61,-31.01,0,*4C
1495778482.81,2354,14.0,73786.3,8.01,-30.33,-31.73,0,*41
1495778484.03,2355,14.0,73786.3,8.01,-30.73,-32.39,0,*49
1495778485.22,2356,14.0,73786.3,8.01,-31.05,-32.57,0,*42
1495778486.46,2357,14.0,73786.8,8.01,-31.51,-33.09,0,*48
1495778487.7,2358,14.0,73790.3,7.99,-31.91,-33.55,0,*4C
1495778488.95,2359,14.0,73784.8,7.95,-30.89,-32.39,0,*42
1495778490.2,2360,14.0,73786.5,7.95,-30.23,-31.61,0,*46
1495778491.45,2361,14.0,73786.8,7.95,-29.67,-31.11,0,*48
1495778492.7,2362,14.0,73786.3,7.95,-30.73,-32.39,0,*4F
1495778493.9,2363,14.0,73784.5,7.97,-30.83,-32.35,0,*4F
1495778495.15,2364,14.0,73790.3,7.95,-30.89,-32.39,0,*4C
1495778496.39,2365,14.0,73786.0,7.95,-30.95,-32.57,0,*48
1495778497.64,2366,14.0,73784.3,7.97,-31.39,-32.79,0,*42
1495778498.89,2367,14.0,73784.5,7.89,-31.73,-33.27,0,*48
1495778500.12,2368,14.0,73784.3,7.89,-32.39,-33.89,0,*4E
1495778501.31,2369,14.0,73786.5,7.85,-32.69,-34.25,0,*47
1495778502.54,2370,14.0,73786.5,7.85,-32.69,-34.31,0,*4A
1495778503.73,2371,14.0,73784.3,7.85,-32.69,-34.41,0,*4C
1495778504.98,2372,14.0,73784.5,7.83,-33.43,-35.13,0,*46
1495778506.21,2373,14.0,73786.3,7.81,-34.13,-35.83,0,*4E
1495778507.48,2374,14.0,73784.0,7.77,-33.77,-35.41,0,*4B
1495778508.7,2375,14.0,73786.0,7.75,-33.31,-35.01,0,*4E
1495778509.92,2376,14.0,73784.5,7.75,-33.37,-35.07,0,*4D
1495778511.16,2377,14.0,73780.5,7.73,-32.13,-33.73,0,*48
1495778512.41,2378,14.0,73784.3,7.67,-33.27,-34.95,0,*4B
1495778513.62,2379,14.0,73786.0,7.67,-33.89,-35.47,0,*40
1495778514.82,2380,14.0,73784.5,7.63,-34.07,-35.71,0,*46
1495778516.04,2381,14.0,73786.8,7.59,-34.01,-35.59,0,*42
1495778517.28,2382,14.0,73784.5,7.59,-33.61,-35.23,0,*4D
1495778518.48,2383,14.0,73784.8,7.59,-33.37,-35.17,0,*48
1495778519.68,2384,14.0,73782.3,7.55,-33.55,-35.29,0,*4A
1495778520.9,2385,14.0,73782.3,7.55,-33.21,-34.83,0,*49
1495778522.12,2386,14.0,73782.3,7.55,-33.21,-34.83,0,*4A
1495778523.34,2387,14.0,73780.0,7.51,-33.37,-35.07,0,*45
1495778524.54,2388,14.0,73784.5,7.51,-33.03,-34.71,0,*4D
1495778525.76,2389,14.0,73782.3,7.49,-32.69,-34.25,0,*49
1495778527.0,2390,14.0,73784.5,7.49,-32.35,-33.77,0,*48
1495778528.21,2391,14.0,73780.5,7.47,-32.39,-33.83,0,*40
1495778529.48,2392,14.0,73780.8,7.47,-32.19,-33.77,0,*4A
1495778530.72,2393,14.0,73782.3,7.47,-30.77,-32.35,0,*46
1495778531.96,2394,14.0,73780.3,7.49,-30.23,-31.61,0,*4C
1495778533.22,2395,14.0,73780.5,7.49,-30.05,-31.45,0,*4F
1495778534.43,2396,14.0,73782.3,7.49,-30.11,-31.67,0,*49
1495778535.65,2397,14.0,73784.0,7.47,-29.79,-31.29,0,*4A
1495778536.88,2398,14.0,73778.5,7.49,-29.79,-31.17,0,*46
1495778538.12,2399,14.0,73778.5,7.53,-30.11,-31.73,0,*48
1495778539.35,2400,14.0,73782.0,7.53,-29.79,-31.33,0,*4D
1495778540.6,2401,14.0,73782.8,7.53,-31.17,-32.75,0,*4C
1495778541.88,2402,14.0,73778.5,7.53,-30.73,-32.29,0,*45
1495778543.1,2403,14.0,73784.0,7.51,-30.95,-32.51,0,*41
1495778544.3,2404,14.0,73780.3,7.51,-31.05,-32.51,0,*4E
1495778545.52,2405,14.0,73780.3,7.53,-31.33,-33.03,0,*4E
1495778546.77,2406,14.0,73780.5,7.53,-32.23,-34.01,0,*4A
1495778547.99,2407,14.0,73780.3,7.53,-32.91,-34.41,0,*46
1495778549.19,2408,14.0,73780.3,7.51,-32.01,-33.55,0,*40
1495778550.44,2409,14.0,73780.3,7.49,-32.01,-33.49,0,*45
1495778551.7,2410,14.0,73782.8,7.47,-30.61,-32.19,0,*43
1495778552.98,2411,14.0,73782.8,7.49,-30.73,-32.19,0,*4F
1495778554.22,2412,14.0,73778.5,7.49,-30.45,-31.91,0,*4A
1495778555.43,2413,14.0,73780.8,7.51,-30.51,-32.01,0,*4D
1495778556.72,2414,14.0,73782.0,7.53,-31.23,-32.75,0,*4F
1495778557.94,2415,14.0,73784.8,7.51,-30.73,-31.79,0,*47
1495778559.13,2416,14.0,73782.0,7.51,-30.33,-31.79,0,*40
1495778560.38,2417,14.0,73780.0,7.53,-30.11,-31.51,0,*49
1495778561.66,2418,14.0,73780.8,7.53,-29.29,-30.73,0,*44
1495778562.89,2419,14.0,73784.5,7.53,-28.97,-30.33,0,*45
1495778564.14,2420,14.0,73786.3,7.57,-29.07,-30.39,0,*49
1495778565.41,2421,14.0,73782.3,7.57,-29.17,-30.61,0,*44
1495778566.63,2422,14.0,73782.5,7.57,-29.07,-30.45,0,*40
1495778567.88,2423,14.0,73784.5,7.59,-29.17,-30.51,0,*4B
1495778569.13,2424,14.0,73784.0,7.61,-29.67,-30.95,0,*48
1495778570.37,2425,14.0,73784.0,7.61,-30.61,-32.13,0,*4B
1495778571.59,2426,14.0,73784.8,7.63,-30.83,-32.29,0,*4F
1495778572.81,2427,14.0,73786.3,7.63,-30.11,-31.39,0,*47
1495778574.04,2428,14.0,73784.0,7.63,-29.39,-30.83,0,*4A
1495778575.31,2429,14.0,73784.0,7.65,-29.13,-30.51,0,*4A
1495778576.57,2430,14.0,73784.8,7.65,-29.13,-30.55,0,*46
1495778577.77,2431,14.0,73784.8,7.67,-29.07,-30.45,0,*41
1495778578.99,2432,14.0,73780.8,7.71,-28.79,-30.23,0,*4D
1495778580.23,2433,14.0,73786.3,7.71,-28.79,-30.05,0,*48
1495778581.48,2434,14.0,73784.0,7.73,-28.97,-30.17,0,*4E
1495778582.68,2435,14.0,73788.5,7.75,-28.43,-29.79,0,*40
1495778583.9,2436,14.0,73786.0,7.75,-28.91,-30.11,0,*4A
1495778585.15,2437,14.0,73786.0,7.77,-28.63,-29.95,0,*40
1495778586.37,2438,14.0,73786.3,7.79,-28.69,-30.05,0,*4A
1495778587.59,2439,14.0,73786.3,7.81,-29.57,-30.95,0,*49
1495778588.84,2440,14.0,73786.8,7.81,-28.79,-30.05,0,*43
1495778590.12,2441,14.0,73784.3,7.83,-28.63,-29.89,0,*47
1495778591.37,2442,14.0,73784.5,7.85,-28.75,-30.01,0,*4D
1495778592.59,2443,14.0,73786.3,7.85,-28.43,-29.67,0,*41
1495778593.82,2444,14.0,73784.5,7.85,-28.43,-29.67,0,*46
1495778595.01,2445,14.0,73784.0,7.89,-28.37,-29.61,0,*4E
1495778596.24,2446,14.0,73784.3,7.89,-28.37,-29.73,0,*4E
1495778597.44,2447,14.0,73784.0,7.93,-27.89,-29.45,0,*4B
1495778598.68,2448,14.0,73784.5,7.93,-27.99,-29.39,0,*4E
1495778599.92,2449,14.0,73786.5,7.95,-28.47,-29.83,0,*44
1495778601.15,2450,14.0,73784.5,7.97,-28.97,-30.39,0,*4A
1495778602.43,2451,14.0,73784.5,7.99,-29.35,-30.89,0,*47
1495778603.65,2452,14.0,73784.5,7.99,-29.61,-31.01,0,*44
1495778604.88,2453,14.0,73786.5,7.99,-29.45,-31.01,0,*43
1495778606.16,2454,14.0,73784.8,7.99,-29.51,-31.11,0,*40
1495778607.36,2455,14.0,73786.5,8.01,-29.45,-30.83,0,*40
1495778608.64,2456,14.0,73784.5,7.99,-29.29,-30.73,0,*48
1495778609.84,2457,14.0,73784.0,8.01,-28.85,-30.33,0,*44
1495778611.07,2458,14.0,73784.8,8.01,-28.53,-29.89,0,*49
1495778612.32,2459,14.0,73784.0,8.03,-29.07,-30.39,0,*49
1495778613.52,2460,14.0,73784.0,8.05,-29.67,-31.17,0,*4E
1495778614.78,2461,14.0,73788.8,8.05,-29.51,-30.89,0,*4C
1495778615.99,2462,14.0,73786.0,8.05,-29.23,-30.55,0,*4B
1495778617.19,2463,14.0,73784.5,8.05,-29.67,-31.17,0,*4D
1495778618.45,2464,14.0,73786.5,8.05,-29.51,-30.89,0,*49
1495778619.68,2465,14.0,73788.3,8.05,-29.51,-31.01,0,*49
1495778620.94,2466,14.0,73784.8,8.07,-29.13,-30.51,0,*4A
1495778622.19,2467,14.0,73784.0,8.09,-29.13,-30.61,0,*46
1495778623.46,2468,14.0,73786.0,8.07,-29.13,-30.55,0,*40
1495778624.65,2469,14.0,73786.0,8.09,-28.69,-30.11,0,*43
1495778625.87,2470,14.0,73784.0,8.09,-28.59,-29.95,0,*4C
1495778627.09,2471,14.0,73786.0,8.15,-28.91,-30.27,0,*45
1495778628.31,2472,14.0,73788.0,8.15,-29.73,-31.29,0,*44
1495778629.57,2473,14.0,73786.8,8.11,-30.01,-31.51,0,*43
1495778630.82,2474,14.0,73790.8,8.11,-29.83,-31.51,0,*46
1495778632.01,2475,14.0,73790.0,8.15,-30.23,-31.79,0,*4B
1495778633.27,2476,14.0,73786.0,8.11,-30.01,-31.57,0,*40
1495778634.53,2477,14.0,73786.8,8.11,-31.51,-32.97,0,*4A
1495778635.74,2478,14.0,73786.3,8.11,-31.05,-32.57,0,*48
1495778636.98,2479,14.0,73786.8,8.11,-31.05,-32.63,0,*4E
1495778638.22,2480,14.0,73786.0,8.09,-30.61,-32.29,0,*4C
1495778639.42,2481,14.0,73784.3,8.09,-29.57,-31.05,0,*4D
1495778640.67,2482,14.0,73784.5,8.07,-29.45,-30.95,0,*4B
1495778641.89,2483,14.0,73784.8,8.11,-28.97,-30.45,0,*4E
1495778643.17,2484,14.0,73782.8,8.11,-29.39,-30.89,0,*4C
1495778644.39,2485,14.0,73782.5,8.11,-29.79,-31.33,0,*49
1495778645.66,2486,14.0,73784.8,8.11,-30.17,-31.91,0,*42
1495778646.87,2487,14.0,73786.8,8.15,-30.61,-32.23,0,*4C
1495778648.05,2488,14.0,73782.0,8.15,-30.11,-31.67,0,*47
1495778649.27,2489,14.0,73784.8,8.15,-30.27,-31.95,0,*4E
1495778650.51,2490,14.0,73786.8,8.11,-30.89,-32.57,0,*4B
1495778651.75,2491,14.0,73784.0,8.11,-29.73,-31.33,0,*46
1495778652.99,2492,14.0,73786.8,8.11,-30.01,-31.67,0,*49
1495778654.21,2493,14.0,73782.8,8.11,-29.83,-31.33,0,*4B
1495778655.4,2494,14.0,73784.5,8.15,-29.79,-31.33,0,*4D
1495778656.65,2495,14.0,73782.5,8.15,-29.51,-31.11,0,*46
1495778657.89,2496,14.0,73782.5,8.15,-29.39,-30.83,0,*41
1495778659.11,2497,14.0,73782.3,8.17,-28.69,-30.33,0,*4D
1495778660.36,2498,14.0,73786.8,8.17,-29.13,-30.67,0,*4F
1495778661.62,2499,14.0,73782.3,8.19,-28.79,-30.17,0,*4A
1495778662.86,2500,14.0,73782.8,8.19,-28.63,-30.05,0,*43
1495778664.11,2501,14.0,73786.5,8.21,-28.79,-30.33,0,*47
1495778665.31,2502,14.0,73782.8,8.23,-28.37,-29.83,0,*4F
1495778666.53,2503,14.0,73784.0,8.23,-28.79,-30.33,0,*47
1495778667.74,2504,14.0,73782.0,8.27,-28.53,-30.05,0,*49
1495778668.96,2505,14.0,73784.5,8.25,-28.53,-29.95,0,*4B
1495778670.18,2506,14.0,73782.0,8.29,-28.15,-29.67,0,*4B
1495778671.46,2507,14.0,73782.8,8.29,-29.17,-30.89,0,*41
1495778672.71,2508,14.0,73780.5,8.29,-29.83,-31.57,0,*41
1495778673.96,2509,14.0,73780.5,8.29,-29.89,-31.45,0,*49
1495778675.19,2510,14.0,73782.3,8.29,-29.45,-31.05,0,*45
1495778676.44,2511,14.0,73786.3,8.29,-28.69,-30.17,0,*49
1495778677.65,2512,14.0,73782.5,8.31,-28.43,-29.83,0,*4E
1495778678.87,2513,14.0,73782.3,8.31,-28.91,-30.45,0,*42
1495778680.06,2514,14.0,73782.8,8.31,-29.95,-31.67,0,*41
1495778681.29,2515,14.0,73782.8,8.33,-29.45,-31.01,0,*4F
1495778682.51,2516,14.0,73786.3,8.31,-29.23,-30.73,0,*4A
1495778683.77,2517,14.0,73778.8,8.33,-28.47,-30.01,0,*4F
1495778685.02,2518,14.0,73784.0,8.33,-28.59,-30.11,0,*4E
1495778686.24,2519,14.0,73780.8,8.35,-28.85,-30.39,0,*42
1495778687.46,2520,14.0,73784.8,8.35,-28.91,-30.27,0,*42
1495778688.71,2521,14.0,73782.3,8.35,-29.01,-30.51,0,*4A
1495778689.98,2522,14.0,73784.0,8.41,-29.01,-30.39,0,*44
1495778691.22,2523,14.0,73786.3,8.41,-28.69,-30.05,0,*45
1495778692.47,2524,14.0,73786.0,8.41,-28.69,-30.01,0,*46
1495778693.73,2525,14.0,73782.0,8.45,-29.01,-30.61,0,*4A
1495778694.96,2526,14.0,73786.0,8.45,-29.07,-30.77,0,*48
1495778696.21,2527,14.0,73780.5,8.47,-29.61,-31.11,0,*4A
1495778697.45,2528,14.0,73782.8,8.47,-29.45,-31.17,0,*45
1495778698.71,2529,14.0,73782.0,8.47,-29.23,-30.77,0,*43
1495778699.93,2530,14.0,73784.0,8.47,-28.85,-30.11,0,*46
1495778701.13,2531,14.0,73780.8,8.49,-28.53,-29.83,0,*41
1495778702.38,2532,14.0,73786.5,8.49,-28.47,-29.89,0,*4D
1495778703.61,2533,14.0,73784.3,8.49,-28.85,-30.17,0,*4D
1495778704.88,2534,14.0,73784.5,8.51,-29.13,-30.51,0,*4F
1495778706.14,2535,14.0,73786.8,8.51,-29.13,-30.55,0,*4A
1495778707.4,2536,14.0,73782.0,8.55,-29.13,-30.67,0,*4C
1495778708.62,2537,14.0,73782.3,8.53,-28.79,-30.23,0,*46
1495778709.88,2538,14.0,73784.0,8.53,-29.35,-30.73,0,*45
1495778711.09,2539,14.0,73782.8,8.53,-29.67,-31.01,0,*47
1495778712.35,2540,14.0,73784.8,8.53,-29.35,-30.89,0,*4F
1495778713.58,2541,14.0,73786.0,8.53,-29.07,-30.55,0,*4E
1495778714.85,2542,14.0,73786.3,8.55,-29.39,-30.95,0,*4A
1495778716.05,2543,14.0,73782.8,8.53,-31.01,-32.51,0,*45
1495778717.28,2544,14.0,73784.5,8.53,-30.01,-31.45,0,*45
1495778718.5,2545,14.0,73786.5,8.53,-30.83,-32.29,0,*47
1495778719.73,2546,14.0,73786.0,8.55,-29.57,-31.01,0,*4A
1495778720.97,2547,14.0,73786.5,8.53,-30.01,-31.57,0,*45
1495778722.18,2548,14.0,73784.5,8.53,-29.67,-31.17,0,*46
1495778723.4,2549,14.0,73786.0,8.55,-28.85,-30.33,0,*4B
1495778724.65,2550,14.0,73782.5,8.55,-28.69,-30.05,0,*44
1495778725.92,2551,14.0,73786.5,8.55,-29.13,-30.61,0,*4B
1495778727.15,2552,14.0,73786.0,8.57,-29.45,-30.95,0,*42
1495778728.38,2553,14.0,73784.5,8.59,-29.67,-31.29,0,*4B
1495778729.59,2554,14.0,73784.8,8.57,-30.33,-31.73,0,*44
1495778730.84,2555,14.0,73784.0,8.55,-29.45,-30.95,0,*47
1495778732.03,2556,14.0,73786.0,8.57,-28.53,-29.95,0,*48
1495778733.26,2557,14.0,73786.0,8.57,-28.37,-29.73,0,*43
1495778734.52,2558,14.0,73784.0,8.59,-28.47,-29.73,0,*45
1495778735.79,2559,14.0,73786.5,8.59,-29.01,-30.55,0,*4B
1495778737.05,2560,14.0,73788.0,8.59,-28.53,-30.01,0,*46
1495778738.27,2561,14.0,73788.3,8.59,-28.31,-29.57,0,*48
1495778739.49,2562,14.0,73784.0,8.65,-28.15,-29.51,0,*44
1495778740.74,2563,14.0,73784.5,8.65,-29.01,-30.51,0,*49
1495778741.98,2564,14.0,73784.3,8.65,-29.29,-30.83,0,*4B
1495778743.24,2565,14.0,73790.8,8.65,-29.35,-30.73,0,*48
1495778744.47,2566,14.0,73786.0,8.69,-28.09,-29.57,0,*47
1495778745.71,2567,14.0,73788.3,8.69,-28.09,-29.39,0,*4E
1495778746.94,2568,14.0,73788.8,8.69,-28.69,-30.17,0,*43
1495778748.16,2569,14.0,73786.8,8.69,-29.73,-31.33,0,*4F
1495778749.38,2570,14.0,73788.3,8.69,-30.45,-32.07,0,*4E
1495778750.58,2571,14.0,73786.0,8.69,-30.83,-32.39,0,*48
1495778751.86,2572,14.0,73786.5,8.67,-30.51,-32.07,0,*47
1495778753.08,2573,14.0,73788.8,8.67,-30.83,-32.39,0,*44
1495778754.3,2574,14.0,73790.5,8.69,-31.39,-33.15,0,*42
1495778755.53,2575,14.0,73788.8,8.67,-32.01,-33.67,0,*40
1495778756.78,2576,14.0,73786.5,8.63,-31.95,-33.21,0,*4B
1495778758.02,2577,14.0,73786.0,8.63,-30.51,-32.13,0,*43
1495778759.29,2578,14.0,73786.8,8.63,-31.39,-32.97,0,*4F
1495778760.54,2579,14.0,73788.3,8.63,-30.89,-32.51,0,*4E
1495778761.82,2580,14.0,73784.8,8.63,-31.23,-32.97,0,*43
1495778763.06,2581,14.0,73788.5,8.59,-31.23,-32.57,0,*47
1495778764.3,2582,14.0,73786.5,8.59,-30.55,-32.13,0,*44
1495778765.51,2583,14.0,73786.5,8.57,-30.45,-31.91,0,*43
1495778766.73,2584,14.0,73784.5,8.59,-31.05,-32.57,0,*46
1495778767.94,2585,14.0,73784.3,8.57,-30.95,-32.57,0,*41
1495778769.16,2586,14.0,73790.0,8.57,-31.11,-32.57,0,*4F
1495778770.35,2587,14.0,73786.3,8.57,-31.01,-32.57,0,*4F
1495778771.57,2588,14.0,73784.0,8.53,-30.23,-31.61,0,*43
1495778772.8,2589,14.0,73784.3,8.55,-29.23,-30.67,0,*4B
1495778774.07,2590,14.0,73784.8,8.55,-29.13,-30.51,0,*45
1495778775.32,2591,14.0,73784.5,8.59,-29.23,-30.73,0,*4B
1495778776.58,2592,14.0,73786.5,8.59,-29.35,-31.17,0,*4C
1495778777.83,2593,14.0,73786.5,8.57,-29.13,-30.51,0,*44
1495778779.07,2594,14.0,73782.8,8.63,-28.97,-30.39,0,*47
1495778780.33,2595,14.0,73784.5,8.65,-28.91,-30.39,0,*46
1495778781.56,2596,14.0,73784.0,8.65,-29.35,-31.01,0,*40
1495778782.81,2597,14.0,73786.8,8.63,-29.79,-31.23,0,*4F
1495778784.01,2598,14.0,73788.3,8.65,-29.61,-31.17,0,*48
1495778785.24,2599,14.0,73784.5,8.67,-28.85,-30.33,0,*47
1495778786.5,2600,14.0,73786.0,8.67,-29.23,-30.61,0,*4E
1495778787.75,2601,14.0,73788.3,8.67,-29.39,-31.01,0,*43
1495778789.03,2602,14.0,73786.0,8.67,-28.59,-29.89,0,*4E
1495778790.26,2603,14.0,73784.3,8.69,-28.21,-29.45,0,*4E
1495778791.45,2604,14.0,73788.8,8.73,-28.15,-29.61,0,*43
1495778792.66,2605,14.0,73786.0,8.73,-28.09,-29.61,0,*4F
1495778793.91,2606,14.0,73782.8,8.75,-28.05,-29.45,0,*40
1495778795.15,2607,14.0,73784.3,8.75,-28.43,-29.83,0,*49
1495778796.42,2608,14.0,73782.8,8.75,-28.05,-29.39,0,*45
1495778797.7,2609,14.0,73786.8,8.77,-28.25,-29.73,0,*4A
1495778798.93,2610,14.0,73784.3,8.77,-28.53,-29.83,0,*4C
1495778800.18,2611,14.0,73786.0,8.79,-28.79,-30.17,0,*4E
1495778801.43,2612,14.0,73784.8,8.81,-28.53,-30.05,0,*41
1495778802.67,2613,14.0,73782.3,8.81,-28.47,-29.95,0,*44
1495778803.94,2614,14.0,73786.8,8.85,-28.59,-30.01,0,*4D
1495778805.19,2615,14.0,73790.0,8.85,-29.45,-30.95,0,*4D
1495778806.41,2616,14.0,73788.8,8.85,-29.61,-31.05,0,*40
1495778807.68,2617,14.0,73786.3,8.85,-29.13,-30.51,0,*44
1495778808.93,2618,14.0,73784.8,8.85,-29.01,-30.33,0,*4C
1495778810.18,2619,14.0,73786.0,8.87,-28.63,-30.01,0,*4B
1495778811.4,2620,14.0,73782.0,8.85,-28.69,-30.23,0,*49
1495778812.67,2621,14.0,73784.3,8.85,-28.59,-30.01,0,*4B
1495778813.89,2622,14.0,73786.0,8.87,-28.43,-29.67,0,*49
1495778815.11,2623,14.0,73784.5,8.87,-28.53,-30.01,0,*41
1495778816.35,2624,14.0,73786.3,8.89,-28.75,-30.11,0,*4D
1495778817.59,2625,14.0,73786.5,8.89,-28.21,-29.57,0,*47
1495778818.78,2626,14.0,73786.8,8.91,-28.31,-29.61,0,*49
1495778819.98,2627,14.0,73786.8,8.91,-28.53,-29.95,0,*47
1495778821.22,2628,14.0,73786.0,8.91,-28.59,-30.05,0,*43
1495778822.43,2629,14.0,73782.8,8.93,-28.31,-29.79,0,*4D
1495778823.67,2630,14.0,73784.5,8.95,-28.43,-29.89,0,*49
1495778824.9,2631,14.0,73784.5,8.95,-28.79,-30.33,0,*48
1495778826.12,2632,14.0,73786.5,8.95,-28.69,-30.17,0,*4C
1495778827.34,2633,14.0,73784.8,8.97,-29.45,-31.01,0,*46
1495778828.58,2634,14.0,73786.3,8.97,-28.79,-30.27,0,*4A
1495778829.83,2635,14.0,73786.5,8.97,-29.07,-30.61,0,*41
1495778831.08,2636,14.0,73784.5,8.97,-29.51,-31.01,0,*46
1495778832.3,2637,14.0,73786.8,8.99,-28.97,-30.61,0,*45
1495778833.55,2638,14.0,73784.5,8.97,-29.39,-31.01,0,*46
1495778834.8,2639,14.0,73784.3,8.97,-29.07,-30.73,0,*4E
1495778836.05,2640,14.0,73786.8,8.97,-28.37,-30.51,0,*42
1495778837.3,2641,14.0,73784.8,8.97,-28.25,-30.67,0,*45
1495778838.55,2642,14.0,73784.8,8.97,-28.05,-30.27,0,*40
1495778839.78,2643,14.0,73786.8,8.99,-26.93,-29.13,0,*41
1495778840.99,2644,14.0,73788.0,8.99,-27.03,-29.13,0,*4E
1495778842.17,2645,14.0,73784.8,8.99,-27.55,-29.79,0,*40
1495778843.38,2646,14.0,73786.8,9.03,-27.83,-29.95,0,*48
1495778844.62,2647,14.0,73790.3,9.03,-27.83,-29.89,0,*44
1495778845.81,2648,14.0,73784.3,9.03,-27.51,-29.79,0,*4B
1495778847.0,2649,14.0,73784.0,9.03,-27.67,-29.79,0,*4F
1495778848.23,2650,14.0,73788.3,9.05,-27.07,-29.13,0,*4B
1495778849.43,2651,14.0,73784.0,9.09,-27.77,-29.83,0,*48
1495778850.63,2652,14.0,73786.3,9.09,-27.77,-29.61,0,*47
1495778851.85,2653,14.0,73786.3,9.09,-27.89,-29.51,0,*44
1495778853.07,2654,14.0,73786.3,9.09,-27.77,-29.29,0,*4D
1495778854.28,2655,14.0,73788.0,9.11,-27.71,-29.07,0,*4F
1495778855.53,2656,14.0,73786.8,9.11,-28.43,-29.67,0,*44
1495778856.78,2657,14.0,73786.8,9.13,-28.43,-29.89,0,*47
1495778857.99,2658,14.0,73786.5,9.13,-29.45,-30.67,0,*47
1495778859.21,2659,14.0,73786.0,9.13,-28.75,-30.11,0,*45
1495778860.44,2660,14.0,73786.8,9.13,-29.23,-30.61,0,*4A
1495778861.67,2661,14.0,73784.5,9.13,-29.45,-30.77,0,*4C
1495778862.92,2662,14.0,73784.0,9.15,-29.23,-30.55,0,*49
1495778864.14,2663,14.0,73786.5,9.15,-29.57,-31.05,0,*4F
1495778865.36,2664,14.0,73786.0,9.13,-30.11,-31.57,0,*43
1495778866.57,2665,14.0,73788.0,9.13,-30.23,-31.57,0,*43
1495778867.79,2666,14.0,73788.8,9.13,-30.77,-32.23,0,*41
1495778869.06,2667,14.0,73784.5,9.11,-30.73,-32.29,0,*4C
1495778870.33,2668,14.0,73784.5,9.11,-30.17,-31.73,0,*4D
1495778871.61,2669,14.0,73790.5,9.11,-29.29,-30.73,0,*48
1495778872.89,2670,14.0,73788.0,9.11,-28.91,-30.51,0,*42
1495778874.15,2671,14.0,73784.8,9.13,-29.01,-30.61,0,*4A
1495778875.39,2672,14.0,73786.5,9.13,-29.39,-30.83,0,*4E
1495778876.64,2673,14.0,73788.0,9.13,-29.17,-30.77,0,*48
1495778877.84,2674,14.0,73788.8,9.13,-29.45,-31.01,0,*48
1495778879.09,2675,14.0,73788.5,9.15,-29.83,-31.39,0,*4E
1495778880.38,2676,14.0,73784.8,9.15,-29.39,-30.89,0,*46
1495778881.62,2677,14.0,73790.5,9.15,-28.85,-30.39,0,*4A
1495778882.9,2678,14.0,73790.3,9.15,-29.35,-30.89,0,*44
1495778884.18,2679,14.0,73788.3,9.15,-29.39,-30.95,0,*44
1495778885.44,2680,14.0,73786.5,9.17,-29.39,-30.89,0,*4D
1495778886.68,2681,14.0,73790.3,9.17,-28.47,-30.01,0,*44
1495778887.88,2682,14.0,73786.5,9.17,-28.69,-30.23,0,*4B
1495778889.08,2683,14.0,73790.0,9.17,-29.57,-31.05,0,*43
1495778890.33,2684,14.0,73786.5,9.19,-28.75,-30.33,0,*4F
1495778891.6,2685,14.0,73784.8,9.19,-28.79,-30.39,0,*48
1495778892.83,2686,14.0,73788.0,9.21,-28.75,-30.33,0,*46
1495778894.07,2687,14.0,73790.5,9.21,-29.29,-30.95,0,*43
1495778895.27,2688,14.0,73786.8,9.21,-29.45,-31.17,0,*4D
1495778896.55,2689,14.0,73790.8,9.23,-29.73,-31.39,0,*47
1495778897.76,2690,14.0,73784.5,9.21,-30.23,-31.73,0,*4E
1495778898.96,2691,14.0,73784.5,9.21,-29.45,-31.17,0,*45
1495778900.16,2692,14.0,73790.8,9.21,-30.11,-31.67,0,*48
1495778901.39,2693,14.0,73788.8,9.21,-29.23,-30.61,0,*47
1495778902.66,2694,14.0,73790.8,9.19,-29.29,-30.73,0,*42
1495778903.89,2695,14.0,73788.5,9.23,-29.57,-31.29,0,*4D
1495778905.12,2696,14.0,73786.8,9.25,-29.89,-31.45,0,*41
1495778906.34,2697,14.0,73784.5,9.27,-30.23,-31.79,0,*45
1495778907.61,2698,14.0,73788.0,9.23,-29.73,-31.11,0,*4D
1495778908.89,2699,14.0,73786.0,9.23,-29.39,-30.73,0,*47
1495778910.16,2700,14.0,73786.3,9.23,-29.73,-31.39,0,*47
1495778911.38,2701,14.0,73784.8,9.23,-29.61,-31.29,0,*44
1495778912.63,2702,14.0,73786.5,9.25,-30.05,-31.61,0,*47
1495778913.86,2703,14.0,73788.0,9.23,-30.23,-31.73,0,*47
1495778915.09,2704,14.0,73788.5,9.25,-29.23,-30.73,0,*4F
1495778916.34,2705,14.0,73786.8,9.25,-29.39,-30.95,0,*4D
1495778917.59,2706,14.0,73788.5,9.25,-29.17,-30.61,0,*49
1495778918.85,2707,14.0,73788.0,9.27,-29.23,-30.73,0,*4E
1495778920.09,2708,14.0,73786.5,9.31,-28.97,-30.39,0,*46